Location: ????? ????
(37.9717°N, 23.4051°E)
Time: 13:20:04
(UTC+00:00)

Cosmos 1953 - Pass Details

Date: 18 April 2024
Orbit: 513 x 530 km, 82.5° (Epoch: 17 May)

Event Time Altitude Azimuth Distance (km) Brightness Sun altitude
Rises 17:32:50 0° 197° (SSW) 2,611 5.8 -6.0°
Reaches altitude 10° 17:35:00 10° 203° (SSW) 1,730 4.9 -6.4°
Maximum altitude 17:38:41 50° 279° (W) 662 3.3 -7.1°
Drops below altitude 10° 17:42:25 10° 356° (N) 1,748 5.2 -7.8°
Sets 17:44:37 0° 2° (N) 2,642 6.1 -8.2°
